This demonstration page uses our WeatherBlox Daily Observations layout. Learn more.

Left ArrowRight Arrow

36.17497, -115.13722

Hourly Observations for August 25, 2019

Temp ( °F °C ) Dew Point ( °F °C ) Humidity (%) Winds ( mph kmh ) Pressure ( in mb ) Visibility ( mi km ) Precip ( " mm )
12:53 am 00:53 Clear 88 31.1 41 5 19 19 Calm 29.87 1012 10 16 0.00 0.00
1:53 am 01:53 Clear 86 30 44 6.7 23 23 NE 6 9 29.88 1012 10 16 0.00 0.00
2:53 am 02:53 Clear 83 28.3 45 7.2 26 26 NNW 6 9 29.88 1012 10 16 0.00 0.00
3:53 am 03:53 Clear 83 28.3 42 5.6 24 24 WNW 5 7 29.89 1012 10 16 0.00 0.00
4:53 am 04:53 Clear 80 26.7 41 5 25 25 NW 5 7 29.90 1013 10 16 0.00 0.00
5:53 am 05:53 Clear 78 25.6 42 5.6 28 28 NW 6 9 29.91 1013 10 16 0.00 0.00
6:53 am 06:53 Sunny 80 26.7 43 6.1 27 27 Calm 29.93 1014 10 16 0.00 0.00
7:53 am 07:53 Sunny 83 28.3 51 10.6 33 33 NNW 5 7 29.95 1014 10 16 0.00 0.00
8:53 am 08:53 Sunny 87 30.6 55 12.8 34 34 Calm 29.96 1014 10 16 0.00 0.00
9:53 am 09:53 Sunny 91 32.8 50 10 25 25 VRB 5 7 29.95 1014 10 16 0.00 0.00
10:53 am 10:53 Sunny 95 35 45 7.2 18 18 SE 8 13 29.94 1014 10 16 0.00 0.00
11:53 am 11:53 Sunny 98 36.7 42 5.6 15 15 SE 8 13 29.92 1013 10 16 0.00 0.00
12:53 pm 12:53 Sunny 102 38.9 39 3.9 11 11 SSE 8 13 29.89 1012 10 16 0.00 0.00
1:53 pm 13:53 Sunny 103 39.4 37 2.8 10 10 SSW 9 15 29.86 1011 10 16 0.00 0.00
2:53 pm 14:53 Sunny 103 39.4 35 1.7 9 9 S 9 15 29.84 1010 10 16 0.00 0.00
3:53 pm 15:53 Sunny 104 40 35 1.7 9 9 S 8 13 29.81 1010 10 16 0.00 0.00
4:53 pm 16:53 Sunny 105 40.6 38 3.3 10 10 S 14 22 29.80 1009 10 16 0.00 0.00
5:53 pm 17:53 Sunny 104 40 37 2.8 10 10 SSW 12 19 29.79 1009 10 16 0.00 0.00
6:53 pm 18:53 Sunny 102 38.9 37 2.8 10 10 SW 14 22 29.78 1009 10 16 0.00 0.00
7:53 pm 19:53 Clear 100 37.8 37 2.8 11 11 WSW 13 20 29.79 1009 10 16 0.00 0.00
8:53 pm 20:53 Clear 99 37.2 39 3.9 12 12 WSW 12 19 29.80 1009 10 16 0.00 0.00
9:53 pm 21:53 Clear 96 35.6 39 3.9 14 14 W 8 13 29.80 1009 10 16 0.00 0.00
10:53 pm 22:53 Clear 91 32.8 39 3.9 16 16 ENE 3 6 29.80 1009 10 16 0.00 0.00
11:53 pm 23:53 Clear 88 31.1 40 4.4 18 18 Calm 29.80 1009 10 16 0.00 0.00

Powered by AerisWeather